Regional Weather Roundup
Issued by NWS

Home | Current Version | Previous Version | Graphics & Text | Print | Product List | Glossary On
Versions: 1 2 3 4 5 6 7 8 9 10 11 12 13 14 15 16 17 18 19 20 21 22 23 24 25 26 27 28 29 30 31 32 33 34 35 36 37 38 39 40 41 42 43 44 45 46 47 48 49 50
000
ASUS45 KPSR 051810
RWRAZ

ARIZONA HOURLY REGIONAL WEATHER ROUNDUP
NATIONAL WEATHER SERVICE PHOENIX AZ
1100 AM MST MON DEC 05 2016

NOTE: FAIR INDICATES FEW OR NO CLOUDS BELOW 12,000 FEET WITH NO
SIGNIFICANT WEATHER AND/OR OBSTRUCTIONS TO VISIBILITY.

AZZ001>003-036-051900-
NORTHWEST ARIZONA

CITY           SKY/WX    TMP DP  RH WIND       PRES   REMARKS
BULLHEAD CITY  SUNNY     54  27  35 CALM      29.96S
KINGMAN        SUNNY     55   4  12 MISG      29.96
6HR MIN TEMP:  35; 6HR MAX TEMP:  55;

$$

AZZ004>008-015-016-018-051900-
NORTH CENTRAL ARIZONA

CITY           SKY/WX    TMP DP  RH WIND       PRES   REMARKS
GRAND CANYON   SUNNY     44  14  29 W12       29.97S
6HR MIN TEMP:  18; 6HR MAX TEMP:  44;

PRESCOTT       SUNNY     53  15  22 VRB3      29.99S
6HR MIN TEMP:  30; 6HR MAX TEMP:  53;

FLAGSTAFF      SUNNY     43  13  29 SW10      29.99F
6HR MIN TEMP:  20; 6HR MAX TEMP:  43;

PAYSON         SUNNY     52  16  24 CALM      30.03R
PAGE           SUNNY     43  16  33 N5        29.91F
6HR MIN TEMP:  29; 6HR MAX TEMP:  44;

$$

AZZ009>014-017-051900-
NORTHEAST ARIZONA

CITY           SKY/WX    TMP DP  RH WIND       PRES   REMARKS
WINSLOW        MOSUNNY   45  20  36 SE5       29.95F
6HR MIN TEMP:  24; 6HR MAX TEMP:  45;

SAINT JOHNS    SUNNY     54  12  18 W20       29.95S
6HR MIN TEMP:  17; 6HR MAX TEMP:  54;

WINDOW ROCK    SUNNY     50  15  24 W17G25    29.94S
6HR MIN TEMP:  14; 6HR MAX TEMP:  50;

SHOW LOW       MOSUNNY   46   9  21 SW14G23   30.01F
$$

AZZ023-051900-
GREATER PHOENIX AREA

CITY           SKY/WX    TMP DP  RH WIND       PRES   REMARKS
PHOENIX        MOSUNNY   59  24  26 SE6       29.95S
6HR MIN TEMP:  44; 6HR MAX TEMP:  59;

BUCKEYE        SUNNY     57  21  24 E9        29.98S
GLENDALE       MOSUNNY   57  27  30 CALM      29.99R
LUKE AFB       SUNNY     58  26  30 CALM      29.96S
6HR MIN TEMP:  39; 6HR MAX TEMP:  58;

DEER VALLEY    SUNNY     58  23  26 CALM      29.96R
6HR MIN TEMP:  41; 6HR MAX TEMP:  58;

SCOTTSDALE     SUNNY     58  25  28 SE5       29.97S
6HR MIN TEMP:  41; 6HR MAX TEMP:  58;

MESA-FALCON      N/A    N/A N/A N/A S7        29.94F
MESA-GATEWAY   MOSUNNY   54  28  37 VRB3      29.97F
CHANDLER       SUNNY     57  27  30 VRB6      29.96
$$

AZZ027-028-051900-
SOUTHWEST MARICOPA COUNTY AND PINAL COUNTY

CITY           SKY/WX    TMP DP  RH WIND       PRES   REMARKS
CASA GRANDE    NOT AVBL
GILA BEND      SUNNY     58  22  24 N3        29.95R
6HR MIN TEMP:  37; 6HR MAX TEMP:  58;

$$

AZZ503-504-507>509-051900-
SOUTHEAST ARIZONA

CITY           SKY/WX    TMP DP  RH WIND       PRES   REMARKS
TUCSON         SUNNY     64  25  22 CALM      30.00R
6HR MIN TEMP:  41; 6HR MAX TEMP:  64;

DAVIS-MONTHAN  SUNNY     63  26  24 S5        29.98S
6HR MIN TEMP:  39; 6HR MAX TEMP:  63;

RYAN FIELD     SUNNY     61  28  29 E5        29.99S
NOGALES        SUNNY     63  29  27 SW8       30.02S
6HR MIN TEMP:  30; 6HR MAX TEMP:  63;

SIERRA VISTA   SUNNY     59  22  24 E5        30.02S
6HR MIN TEMP:  34; 6HR MAX TEMP:  59;

DOUGLAS        SUNNY     54  30  40 S12       30.02F
6HR MIN TEMP:  22; 6HR MAX TEMP:  54;

SAFFORD        SUNNY     50  27  40 CALM      29.98F
6HR MIN TEMP:  28; 6HR MAX TEMP:  50;

$$

AZZ020-021-025-026-031-051900-
SOUTHWEST ARIZONA

CITY           SKY/WX    TMP DP  RH WIND       PRES   REMARKS
YUMA           PTSUNNY   62  24  23 NE6       29.93S
6HR MIN TEMP:  44; 6HR MAX TEMP:  62;

$$

CAZ031-033-041-043-047-048-061-051900-
SOUTHERN CALIFORNIA

CITY           SKY/WX    TMP DP  RH WIND       PRES   REMARKS
DOWNTOWN L.A.  NOT AVBL
L.A. AIRPORT   PTSUNNY   59  52  77 E8        29.99R HAZE
6HR MIN TEMP:  52; 6HR MAX TEMP:  59;

SAN DIEGO      PTSUNNY   60  48  64 S7        30.01
6HR MIN TEMP:  50; 6HR MAX TEMP:  61;

BURBANK        MOSUNNY   55  42  61 SE6       29.98R
6HR MIN TEMP:  43; 6HR MAX TEMP:  55;

ONTARIO        CLOUDY    56  34  43 CALM      29.99R
6HR MIN TEMP:  42; 6HR MAX TEMP:  56;

RIVERSIDE      PTSUNNY   56  36  47 CALM      30.00R
6HR MIN TEMP:  43; 6HR MAX TEMP:  56;

PALM SPRINGS   PTSUNNY   62  29  28 NE3       29.96R
6HR MIN TEMP:  47; 6HR MAX TEMP:  62;

EL CENTRO NAS  PTSUNNY   59  28  30 CALM      29.95R
6HR MIN TEMP:  36; 6HR MAX TEMP:  59;

IMPERIAL       MOSUNNY   60  30  32 E7        29.92S
6HR MIN TEMP:  40; 6HR MAX TEMP:  60;

BLYTHE         MOSUNNY   55  25  31 SE3       29.96S
6HR MIN TEMP:  38; 6HR MAX TEMP:  55;

NEEDLES        SUNNY     58  20  22 CALM      29.95F
6HR MIN TEMP:  42; 6HR MAX TEMP:  58;

$$

NVZ020-UTZ003-051900-
SOUTHERN NEVADA-UTAH

CITY           SKY/WX    TMP DP  RH WIND       PRES   REMARKS
LAS VEGAS      PTSUNNY   53  15  22 NE7       29.96R
6HR MIN TEMP:  40; 6HR MAX TEMP:  53;

SALT LAKE CITY PTSUNNY   32  11  41 N17       30.06S WCI  21
6HR MIN TEMP:  30; 6HR MAX TEMP:  34; 6HR PCP:  0.02;

$$

NMZ009-TXZ055-051900-
NEW MEXICO-WEST TEXAS

CITY           SKY/WX    TMP DP  RH WIND       PRES   REMARKS
ALBUQUERQUE    PTSUNNY   41  17  38 SW8       29.90F
6HR MIN TEMP:  25; 6HR MAX TEMP:  41;

EL PASO        MOSUNNY   53  28  38 SW17      29.92F
6HR MIN TEMP:  32; 6HR MAX TEMP:  53;

$$


........................KEY........................
SKY/WX - SKY CONDITION/WEATHER
TMP    - TEMPERATURE IN FAHRENHEIT
DP     - DEW POINT IN FAHRENHEIT
RH     - RELATIVE HUMIDITY IN PERCENT
WIND   - DIRECTION AND SPEED IN MILES PER HOUR (MPH)
VRB    - VARIABLE WIND DIRECTION
PRES   - MEAN SEA LEVEL PRESSURE IN INCHES OF MERCURY
         F - FALLING PRESSURE   R - RISING PRESSURE
         S - STEADY PRESSURE
VSB    - VISIBILITY IN MILES
HX     - HEAT INDEX IN FAHRENHEIT
WCI    - WIND CHILL INDEX IN FAHRENHEIT
TC     - TEMPERATURE IN CELSIUS WHICH IS ALSO KNOWN AS
         TEMPERATURE IN CENTIGRADE
AFB    - AIR FORCE BASE
         LUKE AFB IS LUKE AIR FORCE BASE
         DAVIS-MONTHAN IS DAVIS-MONTHAN AIR FORCE BASE
NAS    - NAVAL AIR STATION
         EL CENTRO NAS IS EL CENTRO NAVAL AIR STATION
N/A    - NOT AVAILABLE




USA.gov is the U.S. government's official web portal to all federal, state and local government web resources and services.